Satellite: MET-3/5
Catalog number: 21655
Epoch time:      10086.51365888
Element set:     771
Inclination:      082.5611 deg
RA of node:       006.3373 deg
Eccentricity:    0.0012995
Arg of perigee:   188.0428 deg
Mean anomaly:     172.0533 deg
Mean motion:   13.17022379 rev/day
Decay rate:        5.1e-07 rev/day^2
Epoch rev:           89492
Checksum:              308

Satellite: MET-2/21
Catalog number: 22782
Epoch time:      10086.14322783
Element set:     731
Inclination:      082.5486 deg
RA of node:       317.5440 deg
Eccentricity:    0.0020816
Arg of perigee:   273.6185 deg
Mean anomaly:     086.2599 deg
Mean motion:   13.83642781 rev/day
Decay rate:       -4.8e-07 rev/day^2
Epoch rev:           83673
Checksum:              321

Satellite: OKEAN-4
Catalog number: 23317
Epoch time:      10086.73693024
Element set:     189
Inclination:      082.5373 deg
RA of node:       069.8778 deg
Eccentricity:    0.0023026
Arg of perigee:   146.1512 deg
Mean anomaly:     214.1185 deg
Mean motion:   14.82787565 rev/day
Decay rate:       4.75e-06 rev/day^2
Epoch rev:           83438
Checksum:              320

Satellite: NOAA-14
Catalog number: 23455
Epoch time:      10086.40090424
Element set:     998
Inclination:      098.8802 deg
RA of node:       167.7038 deg
Eccentricity:    0.0010205
Arg of perigee:   105.7383 deg
Mean anomaly:     254.4918 deg
Mean motion:   14.13781660 rev/day
Decay rate:       -1.2e-07 rev/day^2
Epoch rev:           78594
Checksum:              308

Satellite: NOAA-15
Catalog number: 25338
Epoch time:      10086.20253120
Element set:     318
Inclination:      098.6142 deg
RA of node:       074.6204 deg
Eccentricity:    0.0009964
Arg of perigee:   318.1730 deg
Mean anomaly:     041.8690 deg
Mean motion:   14.24815063 rev/day
Decay rate:       2.26e-06 rev/day^2
Epoch rev:           61707
Checksum:              276

Satellite: RESURS
Catalog number: 25394
Epoch time:      10086.14944615
Element set:     463
Inclination:      098.3118 deg
RA of node:       108.6744 deg
Eccentricity:    0.0002388
Arg of perigee:   093.8279 deg
Mean anomaly:     266.3173 deg
Mean motion:   14.24196058 rev/day
Decay rate:       -9.0e-08 rev/day^2
Epoch rev:           60867
Checksum:              320

Satellite: FENGYUN1
Catalog number: 25730
Epoch time:      10085.88582015
Element set:       4
Inclination:      098.7813 deg
RA of node:       052.9959 deg
Eccentricity:    0.0024023
Arg of perigee:   137.3477 deg
Mean anomaly:     222.9604 deg
Mean motion:   14.08200365 rev/day
Decay rate:       6.28e-06 rev/day^2
Epoch rev:           56010
Checksum:              282

Satellite: OKEAN-0
Catalog number: 25860
Epoch time:      10085.98489308
Element set:     949
Inclination:      097.8244 deg
RA of node:       061.5150 deg
Eccentricity:    0.0001372
Arg of perigee:   051.2812 deg
Mean anomaly:     308.8520 deg
Mean motion:   14.73625266 rev/day
Decay rate:       1.15e-06 rev/day^2
Epoch rev:           57479
Checksum:              307

Satellite: NOAA-16
Catalog number: 26536
Epoch time:      10086.20208715
Element set:     794
Inclination:      099.1759 deg
RA of node:       101.7237 deg
Eccentricity:    0.0010162
Arg of perigee:   203.2681 deg
Mean anomaly:     156.8026 deg
Mean motion:   14.12550300 rev/day
Decay rate:      -2.04e-06 rev/day^2
Epoch rev:           49025
Checksum:              268

Satellite: NOAA-17
Catalog number: 27453
Epoch time:      10086.35739221
Element set:     799
Inclination:      098.4407 deg
RA of node:       140.0610 deg
Eccentricity:    0.0012079
Arg of perigee:   021.3832 deg
Mean anomaly:     338.7837 deg
Mean motion:   14.24142135 rev/day
Decay rate:       -5.4e-07 rev/day^2
Epoch rev:           40305
Checksum:              282

Satellite: NOAA-18
Catalog number: 28654
Epoch time:      10086.34754046
Element set:     284
Inclination:      098.9417 deg
RA of node:       032.8767 deg
Eccentricity:    0.0013521
Arg of perigee:   285.5289 deg
Mean anomaly:     074.4400 deg
Mean motion:   14.11339271 rev/day
Decay rate:        3.3e-07 rev/day^2
Epoch rev:           24989
Checksum:              318

Satellite: NOAA-19
Catalog number: 33591
Epoch time:      10086.38870943
Element set:     483
Inclination:      098.7813 deg
RA of node:       030.2758 deg
Eccentricity:    0.0014437
Arg of perigee:   157.7287 deg
Mean anomaly:     202.4503 deg
Mean motion:   14.11039025 rev/day
Decay rate:       3.69e-06 rev/day^2
Epoch rev:            5837
Checksum:              313

/EX
SB KEPS @ AMSAT  $ORB10087.M
Orbital Elements  10087.MISC

HR AMSAT ORBITAL ELEMENTS FOR MANNED AND MISCELLANEOUS SATELLITES
FROM WA5QGD FORT WORTH,TX March 28, 2010
Send Subscribe/unsubscribe to KEPS at http://www.amsat.org/mailman/listinfo/kep
BID: ORB10087.M
TO ALL RADIO AMATEURS BT

Satellite: HUBBLE
Catalog number: 20580
Epoch time:      10085.13072512
Element set:     540
Inclination:      028.4693 deg
RA of node:       062.0538 deg
Eccentricity:    0.0003273
Arg of perigee:   041.8770 deg
Mean anomaly:     318.2061 deg
Mean motion:   15.00930404 rev/day
Decay rate:       5.91e-06 rev/day^2
Epoch rev:           89226
Checksum:              255

